星链-36728(STARLINK-36728)

导读 | 豆包AI

STARLINK-36728是美国SpaceX星链星座的卫星,于2026年2月22日发射升空。星链项目旨在构建全球卫星互联网通信网络,为全球偏远地区、海洋、空中等场景提供高速宽带接入服务,这颗卫星是星链低轨星座组网扩容的一部分,将补充星座容量,提升网络覆盖密度与服务稳定性,进一步推动全球互联基础设施建设。

基本信息
目录编号:
67927
目录名称:
STARLINK-36728
国际标识:
2026-036Z
轨道中心:
EARTH
卫星名称:
星链-36728
卫星全名:
星链-36728(STARLINK-36728)
卫星状态:
在轨 (已飞行92 天)
发射日期:
2026-02-22 UTC
国别 :
美国 (US)
星等 :
--
轨道信息
数据来源 国际轨道数据
星历时间: 2026-05-25T09:30:59+0800
11小时前
查看轨道信息
半长轴: 6861.167km
偏心率: 0.0001413
轨道倾角: 43.004°
近地点辐角 273.189°
升交点赤经 173.831°
平近点角 86.880°
近地点: 482.06km
远地点: 484km
周期: 94.266分钟
每日圈数: 15.275867
详细信息
固有亮度:
5
最大亮度:
2.5
卫星平台:
Starlink V1.0
覆盖范围:
全球
运营商:
太空探索技术公司
运营商所在国:
美国
制造商(研发单位):
太空探索技术公司
制造商所在国:
美国
使用方式:
暂无
卫星简介
Starlink 计划是 SpaceX 推出的全球卫星互联网项目,通过发射低轨道卫星,为全球尤其是偏远地区提供高速、低延迟的互联网服务。自 2019 年起,Starlink 已部署数千颗卫星,旨在缩小全球数字鸿沟,推动互联网普及。该项目还为军事、航空等行业提供通信支持,带来广泛经济效益。
2D轨道图
3D轨道图
轨道高度分析图
轨道倾角分析图
轨道综合分析图
查看轨道综合分析图